Starlink 4361

operational
NORAD ID: 53493 Int'l Des: 2022-099 Owner: SPXS Country: US Constellation: starlink
LEOCIRCULARRETROGRADE

Starlink 4361について

説明を読み込み中...

リアルタイム位置

3D地球を読み込み中...

次回通過

高度履歴

Altitude vs Time

uPlot chart will show altitude changes over time

軌道要素

1 53493U 22099AE 26063.00001157 .00279540 00000-0 12690-2 0 9994
2 53493 97.6460 202.2191 0001580 83.7633 85.7773 15.83158849 5755
Epoch: Mar 4, 2026 • Age: 4 hours

現在のステータス

高度 344.8 km
速度 7.70 km/s
衛星直下点 -58.49°S, 0.77°W
打ち上げ日 Aug 12, 2022
運用期間 3.5 years
タイプ internet

技術仕様

分類 Payload
質量 300.00 kg
乾燥質量 275.00 kg
総質量 300.00 kg
長さ 0.20 m
直径 2.80 m
スパン 9.00 m
形状 Box + pan
製造者 SPXS
バスタイプ Starlink
フェーズステータス In Orbit
所有者/国 SPXS/US

大規模コンステレーション

Loading constellations...